Home > Weather > Saint-Jérôme > Past weeks

Flag for Canada Weather for the Past 2 Weeks in Saint-Jérôme, Quebec, Canada

Now
14 °F

Mostly cloudy.


Feels Like: 2 °F
Forecast: 12 / 18 °F
Wind: 9 mph from Northeast

Location: Montreal / Mirabel

Current Time: Feb 7, 2016 at 7:35:43 PM

Latest Report: Feb 7, 2016 at 7:00 PM


Visibility: 25 mi

Pressure: 30.20 "Hg

Humidity: 44%

Dew point: -4 °F

Location of Saint-JérômeLocation

Historic Weather in Saint-Jérôme — Graph

°F

Saint-Jérôme Temperature Yesterday

Maximum temperature yesterday: 32 °F (at 8:00 PM)
Minimum temperature yesterday: 16 °F (at 1:00 AM)
Average temperature yesterday: 23 °F

High & Low Weather Summary for the Past Weeks

 TemperatureHumidityPressure
High45 °F (Feb 1, 5:48 AM)100% (Jan 26, 9:03 AM)30.42 "Hg (Jan 26, 9:03 AM)
Low-6 °F (Jan 24, 6:00 AM)41% (Feb 7, 2:00 PM)29.37 "Hg (Feb 1, 5:48 AM)
Average24 °F79%29.94 "Hg
* Reported Jan 23 5:00 PM — Feb 7 5:00 PM, Saint-Jérôme, Weather by CustomWeather, © 2016

Note: Actual official high and low records may vary slightly from our data, if they occured in-between our weather recording intervals... More about our weather records

Advertising

Saint-Jérôme Weather History for the Previous 24 Hours

 ConditionsComfort  
Time TempWeatherWind HumidityBarometerVisibility
5:00 PM
Sun, Feb 7
14 °FLight snow. Overcast.8 mph52%30.23 "Hg45 mi
4:00 PM14 °FLight snow. Mostly cloudy.13 mph48%30.24 "Hg45 mi
3:00 PM16 °FMostly cloudy.12 mph41%30.24 "Hg45 mi
2:00 PM16 °FPartly sunny.8 mph41%30.22 "Hg45 mi
1:00 PM18 °FPartly sunny.10 mph45%30.22 "Hg45 mi
12:00 PM19 °FPartly sunny.13 mph58%30.20 "Hg45 mi
11:00 AM19 °FPartly sunny.10 mph53%30.21 "Hg45 mi
10:00 AM23 °FPartly sunny.6 mph58%30.20 "Hg45 mi
9:00 AM21 °FPartly sunny.9 mph58%30.20 "Hg45 mi
8:00 AM23 °FBroken clouds.8 mph68%30.18 "Hg45 mi
7:00 AM25 °FPassing clouds.9 mph63%30.16 "Hg25 mi
6:00 AM27 °FOvercast.5 mph69%30.13 "Hg25 mi
5:00 AM27 °FLight snow. Overcast.7 mph64%30.10 "Hg15 mi
4:00 AM27 °FLight snow. Overcast.7 mph74%30.07 "Hg15 mi
3:00 AM32 °FOvercast.12 mph75%30.02 "Hg25 mi
2:00 AM32 °FOvercast.13 mph75%30.02 "Hg25 mi
1:00 AM32 °FOvercast.12 mph75%30.00 "Hg25 mi
12:00 AM32 °FMostly cloudy.10 mph75%30.01 "Hg25 mi
11:00 PM
Sat, Feb 6
32 °FMostly cloudy.14 mph75%30.02 "Hg25 mi
10:00 PM32 °FPartly cloudy.13 mph75%30.03 "Hg25 mi
9:00 PM32 °FOvercast.15 mph75%30.04 "Hg25 mi
8:00 PM32 °FOvercast.15 mph75%30.04 "Hg25 mi
7:00 PM30 °FPassing clouds.9 mph86%30.06 "Hg15 mi
Weather by CustomWeather, © 2016

See weather overviewHow to use our weather pages